EWG5KB EDDV-EGLC

Flight info

Callsign EWG5KB
Flight time 1h 11m
Altitude 38000
Route VAXEV1G VAXEV Y347 WEZTE DCT ABNED L980 XAMAN
Aircraft A320/M-SDE3FGHIRWY/LB1

Departure

Time 2026-05-08 06:45
Airport Hannover Airport (EDDV)

Arrival

Time 2026-05-08 07:56
Airport London City Airport (EGLC)
Time Latitude Longitude Altitude Speed Heading
2026-05-08 05:59 52.45774 9.69936 202 ft 0 kts 54°
2026-05-08 06:36 52.45768 9.69922 201 ft 4 kts 53°
2026-05-08 06:36 52.45752 9.69886 206 ft 4 kts 61°
2026-05-08 06:36 52.45743 9.69855 204 ft 4 kts 53°
2026-05-08 06:37 52.45723 9.69837 204 ft 4 kts
2026-05-08 06:37 52.45697 9.69839 191 ft 4 kts 343°
2026-05-08 06:37 52.45675 9.69859 206 ft 4 kts 298°
2026-05-08 06:37 52.45670 9.69897 205 ft 4 kts 272°
2026-05-08 06:38 52.45670 9.69907 203 ft 0 kts 272°
2026-05-08 06:40 52.45670 9.69906 204 ft 1 kts 272°
2026-05-08 06:41 52.45649 9.69840 198 ft 8 kts 217°
2026-05-08 06:41 52.45611 9.69784 206 ft 7 kts 244°
2026-05-08 06:41 52.45606 9.69708 199 ft 6 kts 271°
2026-05-08 06:41 52.45609 9.69606 191 ft 14 kts 272°
2026-05-08 06:42 52.45615 9.69391 204 ft 21 kts 272°
2026-05-08 06:42 52.45622 9.69149 191 ft 22 kts 273°
2026-05-08 06:42 52.45628 9.68903 191 ft 22 kts 272°
2026-05-08 06:42 52.45636 9.68644 191 ft 24 kts 273°
2026-05-08 06:43 52.45645 9.68363 191 ft 26 kts 273°
2026-05-08 06:43 52.45652 9.68062 191 ft 21 kts 272°
2026-05-08 06:43 52.45657 9.67871 191 ft 16 kts 272°
2026-05-08 06:43 52.45617 9.67722 198 ft 14 kts 215°
2026-05-08 06:44 52.45527 9.67696 187 ft 6 kts 183°
2026-05-08 06:44 52.45497 9.67703 186 ft 1 kts 119°
2026-05-08 06:44 52.45498 9.67719 194 ft 2 kts 92°
2026-05-08 06:44 52.45497 9.67740 186 ft 4 kts 92°
2026-05-08 06:45 52.45489 9.68034 186 ft 62 kts 92°
2026-05-08 06:45 52.45459 9.69133 198 ft 127 kts 92°
2026-05-08 06:45 52.45416 9.70774 564 ft 148 kts 92°
2026-05-08 06:45 52.45386 9.72453 1360 ft 147 kts 91°
2026-05-08 06:46 52.45383 9.74251 1816 ft 169 kts 90°
2026-05-08 06:46 52.45660 9.76213 2220 ft 192 kts 56°
2026-05-08 06:46 52.46737 9.77691 2623 ft 216 kts 27°
2026-05-08 06:46 52.48312 9.78068 3071 ft 248 kts 351°
2026-05-08 06:47 52.49945 9.76900 3860 ft 265 kts 323°
2026-05-08 06:47 52.51108 9.74539 4883 ft 271 kts 298°
2026-05-08 06:47 52.51954 9.71773 5969 ft 272 kts 297°
2026-05-08 06:47 52.52791 9.68971 6979 ft 275 kts 296°
2026-05-08 06:48 52.53640 9.66120 7895 ft 280 kts 296°
2026-05-08 06:48 52.54510 9.63240 8891 ft 282 kts 296°
2026-05-08 06:48 52.55410 9.60366 9913 ft 284 kts 297°
2026-05-08 06:48 52.56338 9.57451 10652 ft 295 kts 297°
2026-05-08 06:49 52.57314 9.54306 11118 ft 314 kts 296°
2026-05-08 06:49 52.58322 9.51017 11681 ft 329 kts 296°
2026-05-08 06:49 52.59350 9.47629 12514 ft 332 kts 296°
2026-05-08 06:49 52.60291 9.44149 13393 ft 335 kts 286°
2026-05-08 06:50 52.60620 9.40412 14193 ft 338 kts 269°
2026-05-08 06:50 52.60190 9.36608 14922 ft 341 kts 249°
2026-05-08 06:50 52.59022 9.33226 15703 ft 343 kts 231°
2026-05-08 06:50 52.57259 9.30545 16365 ft 350 kts 218°
2026-05-08 06:51 52.55291 9.28142 17056 ft 354 kts 217°
2026-05-08 06:51 52.53262 9.25749 17885 ft 355 kts 217°
2026-05-08 06:51 52.51250 9.23362 18579 ft 359 kts 218°
2026-05-08 06:51 52.49267 9.20921 19153 ft 363 kts 218°
2026-05-08 06:52 52.47256 9.18381 19756 ft 366 kts 219°
2026-05-08 06:52 52.45242 9.15815 20444 ft 367 kts 219°
2026-05-08 06:52 52.43280 9.13122 21089 ft 368 kts 226°
2026-05-08 06:52 52.41673 9.09848 21648 ft 371 kts 238°
2026-05-08 06:53 52.40544 9.06058 22287 ft 372 kts 251°
2026-05-08 06:53 52.39997 9.01915 22872 ft 374 kts 265°
2026-05-08 06:53 52.40060 8.97646 23454 ft 378 kts 275°
2026-05-08 06:53 52.40300 8.93337 23914 ft 382 kts 274°
2026-05-08 06:54 52.40499 8.88982 24358 ft 385 kts 273°
2026-05-08 06:54 52.40676 8.84590 24825 ft 388 kts 273°
2026-05-08 06:54 52.40844 8.80169 25315 ft 389 kts 273°
2026-05-08 06:54 52.41014 8.75731 25780 ft 392 kts 273°
2026-05-08 06:55 52.41190 8.71263 26245 ft 393 kts 273°
2026-05-08 06:55 52.41371 8.66783 26705 ft 395 kts 273°
2026-05-08 06:55 52.41557 8.62280 27157 ft 397 kts 274°
2026-05-08 06:55 52.41746 8.57755 27603 ft 399 kts 274°
2026-05-08 06:56 52.41935 8.53204 28048 ft 401 kts 274°
2026-05-08 06:56 52.42121 8.48625 28482 ft 403 kts 273°
2026-05-08 06:56 52.42304 8.44027 28909 ft 406 kts 273°
2026-05-08 06:56 52.42427 8.40906 29201 ft 407 kts 273°
2026-05-08 06:57 52.42608 8.36272 29623 ft 409 kts 273°
2026-05-08 06:57 52.42786 8.31600 30037 ft 411 kts 273°
2026-05-08 06:57 52.42959 8.26919 30406 ft 413 kts 273°
2026-05-08 06:57 52.43134 8.22200 30724 ft 415 kts 273°
2026-05-08 06:58 52.43171 8.17464 31025 ft 417 kts 268°
2026-05-08 06:58 52.43079 8.12694 31321 ft 420 kts 268°
2026-05-08 06:58 52.42984 8.07914 31629 ft 422 kts 268°
2026-05-08 06:58 52.42884 8.03112 32027 ft 421 kts 268°
2026-05-08 06:59 52.42784 7.98416 32449 ft 420 kts 268°
2026-05-08 06:59 52.42679 7.93665 32869 ft 419 kts 268°
2026-05-08 06:59 52.42571 7.88892 33298 ft 418 kts 268°
2026-05-08 06:59 52.42462 7.84137 33718 ft 418 kts 268°
2026-05-08 07:00 52.42351 7.79385 34147 ft 417 kts 268°
2026-05-08 07:00 52.42239 7.74646 34492 ft 416 kts 268°
2026-05-08 07:00 52.42127 7.69901 34802 ft 417 kts 267°
2026-05-08 07:00 52.42013 7.65157 35081 ft 417 kts 267°
2026-05-08 07:01 52.41894 7.60405 35368 ft 418 kts 267°
2026-05-08 07:01 52.41773 7.55645 35648 ft 419 kts 267°
2026-05-08 07:01 52.41651 7.50878 35923 ft 419 kts 267°
2026-05-08 07:01 52.41524 7.46105 36191 ft 420 kts 267°
2026-05-08 07:02 52.41398 7.41329 36461 ft 420 kts 266°
2026-05-08 07:02 52.41273 7.36543 36714 ft 421 kts 266°
2026-05-08 07:02 52.41145 7.31749 36961 ft 422 kts 266°
2026-05-08 07:02 52.41016 7.26950 37203 ft 422 kts 266°
2026-05-08 07:03 52.40885 7.22143 37452 ft 423 kts 266°
2026-05-08 07:03 52.40750 7.17333 37690 ft 423 kts 266°
2026-05-08 07:03 52.40611 7.12516 37927 ft 424 kts 266°
2026-05-08 07:03 52.40467 7.07699 38123 ft 425 kts 264°
2026-05-08 07:04 52.39441 6.98205 38163 ft 423 kts 257°
2026-05-08 07:04 52.38243 6.88771 38159 ft 423 kts 257°
2026-05-08 07:05 52.37042 6.79354 38160 ft 423 kts 257°
2026-05-08 07:05 52.35845 6.69936 38157 ft 423 kts 257°
2026-05-08 07:06 52.34639 6.60511 38160 ft 423 kts 257°
2026-05-08 07:06 52.33423 6.51100 38164 ft 423 kts 257°
2026-05-08 07:07 52.32201 6.41701 38164 ft 423 kts 257°
2026-05-08 07:07 52.30970 6.32299 38164 ft 423 kts 257°
2026-05-08 07:08 52.29727 6.22902 38165 ft 423 kts 257°
2026-05-08 07:08 52.28484 6.13521 38161 ft 423 kts 257°
2026-05-08 07:09 52.27234 6.04140 38158 ft 423 kts 257°
2026-05-08 07:09 52.25974 5.94758 38163 ft 423 kts 257°
2026-05-08 07:10 52.24703 5.85389 38159 ft 422 kts 257°
2026-05-08 07:10 52.23430 5.76041 38157 ft 422 kts 257°
2026-05-08 07:11 52.22149 5.66699 38151 ft 422 kts 257°
2026-05-08 07:11 52.20860 5.57359 38150 ft 422 kts 257°
2026-05-08 07:12 52.19562 5.48030 38159 ft 422 kts 257°
2026-05-08 07:12 52.18261 5.38703 38155 ft 422 kts 257°
2026-05-08 07:13 52.16957 5.29381 38152 ft 422 kts 256°
2026-05-08 07:13 52.15643 5.20066 38150 ft 422 kts 256°
2026-05-08 07:14 52.14312 5.10761 38148 ft 422 kts 256°
2026-05-08 07:14 52.12984 5.01505 38147 ft 422 kts 256°
2026-05-08 07:15 52.11654 4.92199 38146 ft 422 kts 256°
2026-05-08 07:15 52.10315 4.82918 38146 ft 422 kts 256°
2026-05-08 07:16 52.08954 4.73644 38144 ft 422 kts 256°
2026-05-08 07:16 52.07587 4.64371 38141 ft 422 kts 256°
2026-05-08 07:17 52.06226 4.55097 38144 ft 422 kts 256°
2026-05-08 07:17 52.04853 4.45842 38146 ft 422 kts 256°
2026-05-08 07:18 52.03468 4.36586 38150 ft 422 kts 256°
2026-05-08 07:18 52.02080 4.27320 37961 ft 421 kts 256°
2026-05-08 07:19 52.01386 4.22710 37687 ft 421 kts 256°
2026-05-08 07:19 52.00690 4.18097 37428 ft 420 kts 256°
2026-05-08 07:19 51.99993 4.13498 37152 ft 420 kts 256°
2026-05-08 07:19 51.99292 4.08892 36888 ft 420 kts 255°
2026-05-08 07:20 51.98589 4.04293 36627 ft 420 kts 255°
2026-05-08 07:20 51.97883 3.99704 36373 ft 419 kts 255°
2026-05-08 07:20 51.97175 3.95109 36114 ft 419 kts 255°
2026-05-08 07:20 51.96471 3.90526 35854 ft 417 kts 255°
2026-05-08 07:21 51.95774 3.85971 35616 ft 415 kts 255°
2026-05-08 07:21 51.95078 3.81448 35366 ft 412 kts 255°
2026-05-08 07:21 51.94382 3.76957 35108 ft 409 kts 255°
2026-05-08 07:21 51.93691 3.72518 34650 ft 405 kts 255°
2026-05-08 07:22 51.93001 3.68109 34147 ft 402 kts 255°
2026-05-08 07:22 51.92313 3.63731 33597 ft 399 kts 255°
2026-05-08 07:22 51.91631 3.59407 33116 ft 394 kts 255°
2026-05-08 07:22 51.90956 3.55129 32615 ft 390 kts 255°
2026-05-08 07:23 51.90287 3.50903 32149 ft 386 kts 255°
2026-05-08 07:23 51.89624 3.46710 31680 ft 382 kts 255°
2026-05-08 07:23 51.88966 3.42565 31220 ft 379 kts 255°
2026-05-08 07:23 51.88315 3.38453 30758 ft 375 kts 255°
2026-05-08 07:24 51.87668 3.34385 30326 ft 371 kts 255°
2026-05-08 07:24 51.87025 3.30359 29851 ft 368 kts 255°
2026-05-08 07:24 51.86388 3.26384 29416 ft 362 kts 255°
2026-05-08 07:24 51.85760 3.22468 29005 ft 357 kts 255°
2026-05-08 07:25 51.85141 3.18613 28601 ft 352 kts 256°
2026-05-08 07:25 51.84752 3.14732 28183 ft 348 kts 263°
2026-05-08 07:25 51.84268 3.07022 27360 ft 341 kts 263°
2026-05-08 07:26 51.84023 3.03227 26948 ft 338 kts 263°
2026-05-08 07:26 51.83779 2.99466 26538 ft 335 kts 263°
2026-05-08 07:26 51.83535 2.95734 26122 ft 333 kts 263°
2026-05-08 07:26 51.83290 2.92027 25704 ft 331 kts 262°
2026-05-08 07:27 51.83045 2.88337 25274 ft 329 kts 262°
2026-05-08 07:27 51.82801 2.84665 24839 ft 328 kts 262°
2026-05-08 07:27 51.82555 2.81003 24404 ft 327 kts 262°
2026-05-08 07:27 51.82310 2.77354 23958 ft 327 kts 262°
2026-05-08 07:28 51.82063 2.73706 23485 ft 326 kts 262°
2026-05-08 07:28 51.81816 2.70073 23017 ft 324 kts 262°
2026-05-08 07:28 51.81570 2.66458 22582 ft 322 kts 262°
2026-05-08 07:28 51.81325 2.62875 22154 ft 320 kts 262°
2026-05-08 07:29 51.81080 2.59308 21727 ft 319 kts 262°
2026-05-08 07:29 51.80834 2.55758 21304 ft 317 kts 262°
2026-05-08 07:29 51.80589 2.52221 20889 ft 316 kts 262°
2026-05-08 07:29 51.80341 2.48694 20475 ft 315 kts 262°
2026-05-08 07:30 51.80092 2.45181 20063 ft 314 kts 262°
2026-05-08 07:30 51.79844 2.41677 19657 ft 314 kts 262°
2026-05-08 07:30 51.79594 2.38174 19248 ft 314 kts 262°
2026-05-08 07:30 51.79344 2.34672 18842 ft 314 kts 262°
2026-05-08 07:31 51.79093 2.31173 18442 ft 314 kts 262°
2026-05-08 07:31 51.78840 2.27627 17992 ft 313 kts 262°
2026-05-08 07:31 51.78588 2.24138 17591 ft 312 kts 262°
2026-05-08 07:31 51.78343 2.20669 17196 ft 311 kts 263°
2026-05-08 07:32 51.78128 2.17204 16804 ft 310 kts 263°
2026-05-08 07:32 51.77931 2.13750 16422 ft 309 kts 263°
2026-05-08 07:32 51.77738 2.10299 16035 ft 308 kts 264°
2026-05-08 07:32 51.77543 2.06856 15649 ft 308 kts 263°
2026-05-08 07:33 51.77344 2.03424 15264 ft 307 kts 263°
2026-05-08 07:33 51.77211 2.01146 15009 ft 307 kts 264°
2026-05-08 07:33 51.77011 1.97711 14629 ft 307 kts 264°
2026-05-08 07:33 51.76810 1.94279 14238 ft 307 kts 264°
2026-05-08 07:34 51.76605 1.90849 13842 ft 307 kts 264°
2026-05-08 07:34 51.76397 1.87423 13427 ft 306 kts 264°
2026-05-08 07:34 51.76187 1.84011 13033 ft 305 kts 264°
2026-05-08 07:34 51.75977 1.80618 12643 ft 303 kts 264°
2026-05-08 07:35 51.75767 1.77247 12245 ft 301 kts 264°
2026-05-08 07:35 51.75558 1.73890 11853 ft 300 kts 264°
2026-05-08 07:35 51.75350 1.70551 11453 ft 298 kts 264°
2026-05-08 07:35 51.75141 1.67234 11137 ft 294 kts 265°
2026-05-08 07:36 51.74937 1.64015 10950 ft 285 kts 265°
2026-05-08 07:36 51.74734 1.60838 10618 ft 283 kts 265°
2026-05-08 07:36 51.74536 1.57700 10266 ft 281 kts 265°
2026-05-08 07:36 51.74337 1.54578 9961 ft 277 kts 265°
2026-05-08 07:37 51.74139 1.51486 9509 ft 277 kts 265°
2026-05-08 07:37 51.73942 1.48449 9342 ft 267 kts 265°
2026-05-08 07:37 51.73753 1.45532 9224 ft 256 kts 264°
2026-05-08 07:37 51.73559 1.42738 9111 ft 245 kts 260°
2026-05-08 07:38 51.73154 1.40119 8946 ft 237 kts 256°
2026-05-08 07:38 51.72738 1.37587 8779 ft 231 kts 256°
2026-05-08 07:38 51.72329 1.35095 8616 ft 230 kts 256°
2026-05-08 07:38 51.71921 1.32608 8452 ft 229 kts 256°
2026-05-08 07:39 51.71512 1.30121 8292 ft 229 kts 255°
2026-05-08 07:39 51.71100 1.27640 8129 ft 229 kts 255°
2026-05-08 07:39 51.70690 1.25164 7965 ft 229 kts 255°
2026-05-08 07:39 51.70280 1.22689 7871 ft 228 kts 255°
2026-05-08 07:40 51.69868 1.20213 7795 ft 229 kts 255°
2026-05-08 07:40 51.69457 1.17737 7716 ft 229 kts 255°
2026-05-08 07:40 51.69045 1.15257 7644 ft 229 kts 255°
2026-05-08 07:40 51.68635 1.12777 7568 ft 230 kts 255°
2026-05-08 07:41 51.68223 1.10289 7489 ft 230 kts 255°
2026-05-08 07:41 51.67809 1.07799 7420 ft 230 kts 255°
2026-05-08 07:41 51.67393 1.05305 7339 ft 231 kts 255°
2026-05-08 07:41 51.66976 1.02806 7261 ft 231 kts 255°
2026-05-08 07:42 51.66555 1.00309 7181 ft 231 kts 254°
2026-05-08 07:42 51.66134 0.97811 7111 ft 231 kts 254°
2026-05-08 07:42 51.65713 0.95312 7033 ft 231 kts 254°
2026-05-08 07:42 51.65291 0.92809 6959 ft 232 kts 254°
2026-05-08 07:43 51.64867 0.90303 6846 ft 232 kts 254°
2026-05-08 07:43 51.64444 0.87797 6717 ft 232 kts 254°
2026-05-08 07:43 51.64021 0.85284 6591 ft 233 kts 254°
2026-05-08 07:43 51.63597 0.82769 6464 ft 233 kts 254°
2026-05-08 07:44 51.63171 0.80253 6330 ft 232 kts 253°
2026-05-08 07:44 51.62746 0.77748 6193 ft 232 kts 254°
2026-05-08 07:44 51.62322 0.75248 6064 ft 231 kts 253°
2026-05-08 07:44 51.61898 0.72758 5931 ft 230 kts 253°
2026-05-08 07:45 51.61476 0.70280 5797 ft 230 kts 253°
2026-05-08 07:45 51.61054 0.67803 5664 ft 229 kts 253°
2026-05-08 07:45 51.60634 0.65345 5538 ft 226 kts 253°
2026-05-08 07:45 51.60224 0.62947 5411 ft 219 kts 253°
2026-05-08 07:46 51.59821 0.60603 5279 ft 216 kts 252°
2026-05-08 07:46 51.59419 0.58273 5155 ft 215 kts 252°
2026-05-08 07:46 51.59020 0.55958 5027 ft 215 kts 252°
2026-05-08 07:46 51.58620 0.53650 4903 ft 214 kts 252°
2026-05-08 07:47 51.58217 0.51318 4763 ft 213 kts 252°
2026-05-08 07:47 51.57826 0.49052 4640 ft 213 kts 252°
2026-05-08 07:47 51.57425 0.46732 4484 ft 212 kts 252°
2026-05-08 07:47 51.57033 0.44466 4332 ft 208 kts 252°
2026-05-08 07:48 51.56651 0.42248 4180 ft 204 kts 252°
2026-05-08 07:48 51.56275 0.40075 4041 ft 200 kts 252°
2026-05-08 07:48 51.55903 0.37927 3899 ft 199 kts 252°
2026-05-08 07:48 51.55529 0.35783 3731 ft 199 kts 252°
2026-05-08 07:49 51.55155 0.33645 3581 ft 198 kts 252°
2026-05-08 07:49 51.54784 0.31514 3431 ft 198 kts 252°
2026-05-08 07:49 51.54414 0.29391 3274 ft 197 kts 252°
2026-05-08 07:49 51.54043 0.27275 3124 ft 197 kts 252°
2026-05-08 07:50 51.53672 0.25158 2971 ft 197 kts 252°
2026-05-08 07:50 51.53303 0.23043 2815 ft 197 kts 252°
2026-05-08 07:50 51.52930 0.20924 2662 ft 197 kts 252°
2026-05-08 07:50 51.52558 0.18813 2506 ft 197 kts 252°
2026-05-08 07:51 51.52185 0.16703 2362 ft 196 kts 251°
2026-05-08 07:51 51.51812 0.14592 2196 ft 196 kts 251°
2026-05-08 07:51 51.51440 0.12479 2044 ft 196 kts 252°
2026-05-08 07:51 51.51066 0.10380 1928 ft 195 kts 251°
2026-05-08 07:52 51.50830 0.08229 1863 ft 200 kts 273°
2026-05-08 07:52 51.51329 0.06167 1817 ft 197 kts 301°
2026-05-08 07:52 51.52073 0.04429 1741 ft 181 kts 305°
2026-05-08 07:52 51.52779 0.02880 1667 ft 167 kts 305°
2026-05-08 07:53 51.53449 0.01427 1577 ft 158 kts 305°
2026-05-08 07:53 51.54095 0.00023 1502 ft 155 kts 305°
2026-05-08 07:53 51.54730 -0.01367 1441 ft 154 kts 304°
2026-05-08 07:53 51.55027 -0.02943 1407 ft 148 kts 257°
2026-05-08 07:54 51.54491 -0.04252 1413 ft 141 kts 206°
2026-05-08 07:54 51.53593 -0.04323 1419 ft 131 kts 152°
2026-05-08 07:54 51.53026 -0.03227 1417 ft 130 kts 118°
2026-05-08 07:54 51.52389 -0.02267 1387 ft 130 kts 162°
2026-05-08 07:55 51.51498 -0.01959 1250 ft 130 kts 161°
2026-05-08 07:55 51.50805 -0.01091 1117 ft 130 kts 117°
2026-05-08 07:55 51.50681 0.00333 843 ft 132 kts 89°
2026-05-08 07:55 51.50642 0.01810 507 ft 131 kts 95°
2026-05-08 07:56 51.50596 0.03262 266 ft 129 kts 92°
2026-05-08 07:56 51.50550 0.04699 53 ft 127 kts 93°
2026-05-08 07:56 51.50512 0.05874 30 ft 68 kts 93°
2026-05-08 07:56 51.50502 0.06220 30 ft 14 kts 92°
2026-05-08 07:57 51.50462 0.06330 30 ft 7 kts 156°
2026-05-08 07:57 51.50422 0.06322 30 ft 5 kts 224°
2026-05-08 07:57 51.50416 0.06281 30 ft 2 kts 274°
2026-05-08 07:57 51.50418 0.06194 30 ft 15 kts 272°
2026-05-08 07:58 51.50424 0.06026 30 ft 15 kts 273°
2026-05-08 07:58 51.50429 0.05868 30 ft 14 kts 272°
2026-05-08 07:58 51.50433 0.05721 30 ft 13 kts 272°
2026-05-08 07:58 51.50437 0.05580 30 ft 12 kts 273°
2026-05-08 07:59 51.50442 0.05450 30 ft 11 kts 273°
2026-05-08 07:59 51.50445 0.05329 30 ft 11 kts 272°
2026-05-08 07:59 51.50448 0.05244 30 ft 6 kts 272°
2026-05-08 07:59 51.50450 0.05181 30 ft 5 kts 274°
2026-05-08 08:00 51.50434 0.05157 30 ft 3 kts 192°
2026-05-08 08:00 51.50415 0.05152 30 ft 3 kts 185°
2026-05-08 08:00 51.50402 0.05150 30 ft 0 kts 188°
2026-05-08 08:00 51.50401 0.05145 30 ft 1 kts 225°
2026-05-08 08:01 51.50402 0.05140 30 ft 1 kts 254°
2026-05-08 08:01 51.50405 0.05137 30 ft 0 kts 298°
2026-05-08 08:01 51.50407 0.05136 30 ft 0 kts 319°
2026-05-08 08:01 51.50410 0.05134 30 ft 0 kts 324°
2026-05-08 08:02 51.50411 0.05132 30 ft 0 kts 324°
2026-05-08 08:02 51.50413 0.05131 30 ft 0 kts 324°